Regional Weather Roundup
Issued by NWS

Home | Current Version | Previous Version | Text Only | Print | Product List | Glossary Off
Versions: 1 2 3 4 5 6 7 8 9 10 11 12 13 14 15 16 17 18 19 20 21 22 23 24 25 26 27 28 29 30 31 32 33 34 35 36 37 38 39 40 41 42 43 44 45 46 47 48 49 50

000
ASUS43 KFSD 171502
RWRSD

WEATHER ROUNDUP FOR SOUTH DAKOTA
NATIONAL WEATHER SERVICE SIOUX FALLS SD
1000 AM CDT THU APR 17 2014

NOTE: "FAIR" INDICATES FEW OR NO CLOUDS BELOW 12,000 FEET WITH NO
SIGNIFICANT WEATHER AND/OR OBSTRUCTIONS TO VISIBILITY.


SDZ001>005-009-010-012>017-171600-
NORTHWEST AND NORTH CENTRAL SOUTH DAKOTA

CITY           SKY/WX    TMP DP  RH WIND       PRES   REMARKS
FAITH            N/A     32  21  64 SE20      30.20F WCI  20
MOBRIDGE       SUNNY     32  16  51 SE8       30.27F WCI  25
$$

SDZ012>016-024>037-041>051-057-063-072>074-171600-
SOUTHWEST AND SOUTH CENTRAL SOUTH DAKOTA

CITY           SKY/WX    TMP DP  RH WIND       PRES   REMARKS
RAPID CTY ARPT CLOUDY    36  29  75 S16G24    30.14S
PIERRE         CLOUDY    34  22  61 SE10      30.29S WCI  26
CUSTER         CLOUDY    29  27  92 SW6       30.07S FOG     WCI  23
ELLSWORTH AFB  CLOUDY    35  29  78 S16       30.12F WCI  25
PHILIP         CLOUDY    34  22  61 SE13      30.24S WCI  25
PINE RIDGE     CLOUDY    35  28  75 S9        30.17S WCI  28
WINNER         CLOUDY    35  23  61 E3        30.30S
$$

SDZ004>011-016>023-039-040-171600-
NORTHEAST SOUTH DAKOTA

CITY           SKY/WX    TMP DP  RH WIND       PRES   REMARKS
ABERDEEN       MOSUNNY   29  21  72 NE6       30.33F WCI  23
WATERTOWN      SUNNY     27  19  72 N8        30.29S WCI  19
SISSETON         N/A     30  22  72 N10       30.32F WCI  21
$$

SDZ017-020-022-023-036>040-048>070-171600-
SOUTHEAST SOUTH DAKOTA

CITY           SKY/WX    TMP DP  RH WIND       PRES   REMARKS
SIOUX FALLS    MOSUNNY   29  23  78 N12       30.31S WCI  19
HURON          MOSUNNY   31  22  69 N3        30.33S
CHAMBERLAIN      N/A     34  25  69 E3        30.32R
MITCHELL       SUNNY     34  21  59 NE8       30.34S WCI  27
YANKTON        SUNNY     32  21  64 N9        30.35R WCI  24
$$

ABBREVIATIONS USED IN REMARKS
   TC - TEMPERATURE IN CELSIUS
  WCI - WIND CHILL INDEX
   HX - HEAT INDEX
  VSB - VISIBILITY




USA.gov is the U.S. government's official web portal to all federal, state and local government web resources and services.